Simultaneous Nadir Overpasses (SNOs) Predictions

Prediction of SNOs between GOES-16 and METOP-B Satellite Orbit:

Table of predicted SNOs for the next 14.0 days since TLE Epoch: 5/4/2024
Index Date Time (GOES-16) GOES-16 Lat,Lon METOP-B Lat,Lon Distance(km) Time Diff (sec)
1 05/05/2024 02:18:10 -0.05, -75.20 0.23, -74.09 127.58 80
2 05/06/2024 14:36:59 0.05, -75.22 0.78, -78.65 390.15 80
3 05/07/2024 14:18:58 0.05, -75.23 -0.30, -73.65 179.84 80
4 05/09/2024 02:37:56 -0.04, -75.23 -0.71, -78.25 344.24 80
5 05/10/2024 02:14:35 -0.04, -75.24 0.38, -73.25 225.81 80
6 05/11/2024 14:33:24 0.03, -75.27 0.61, -77.82 291.31 80
7 05/12/2024 14:15:23 0.03, -75.28 -0.54, -72.83 279.20 80
8 05/14/2024 02:34:21 -0.02, -75.29 -0.52, -77.42 243.68 80
9 05/15/2024 02:11:00 -0.02, -75.31 0.64, -72.44 327.36 80
10 05/16/2024 14:29:49 0.02, -75.35 0.40, -77.00 188.09 80
11 05/17/2024 14:11:47 0.02, -75.37 -0.70, -72.00 383.60 80
